• In Belarus
  • List of Countries
  • For 7 days
  • Water Temperature
  • Satellite Maps
  • Weather Map
  • Weather Widgets
  • user-avatar
    Login

    Hourly Weather Oran

    Today, 20 September, Wednesday

    Time Temperature Precipitation Wind Pressure Humidity
    00:00 +23°C° 0 mm 0 mps 755 mmHg 65%
    01:00 +24°C° 0 mm 1 mps 754 mmHg 66%
    02:00 +24°C° 0 mm 1 mps 754 mmHg 67%
    03:00 +24°C° 0 mm 1 mps 754 mmHg 68%
    04:00 +23°C° 0 mm 2 mps 754 mmHg 68%
    05:00 +23°C° 0 mm 2 mps 754 mmHg 69%
    06:00 +23°C° 0 mm 2 mps 754 mmHg 69%
    07:00 +24°C° 0 mm 2 mps 754 mmHg 59%
    08:00 +26°C° 0 mm 2 mps 754 mmHg 48%
    09:00 +28°C° 0 mm 3 mps 755 mmHg 38%
    10:00 +29°C° 0 mm 3 mps 754 mmHg 32%
    11:00 +31°C° 0 mm 3 mps 754 mmHg 26%
    12:00 +33°C° 0 mm 3 mps 754 mmHg 20%
    13:00 +34°C° 0 mm 4 mps 753 mmHg 19%
    14:00 +35°C° 0 mm 5 mps 753 mmHg 18%
    15:00 +35°C° 0 mm 5 mps 752 mmHg 18%
    16:00 +34°C° 0 mm 6 mps 752 mmHg 21%
    17:00 +33°C° 0 mm 6 mps 752 mmHg 25%
    18:00 +32°C° 0 mm 6 mps 752 mmHg 29%
    19:00 +30°C° 0 mm 5 mps 752 mmHg 32%
    20:00 +29°C° 0 mm 5 mps 752 mmHg 34%
    21:00 +28°C° 0 mm 4 mps 752 mmHg 36%
    22:00 +28°C° 0 mm 3 mps 752 mmHg 37%
    23:00 +27°C° 0 mm 3 mps 752 mmHg 38%

    Tomorrow, 21 September, Thursday

    Time Temperature Precipitation Wind Pressure Humidity
    00:00 +27°C° 0 mm 2 mps 752 mmHg 38%
    01:00 +26°C° 0 mm 2 mps 752 mmHg 39%
    02:00 +26°C° 0 mm 2 mps 751 mmHg 39%
    03:00 +25°C° 0 mm 2 mps 751 mmHg 39%
    04:00 +25°C° 0 mm 2 mps 751 mmHg 41%
    05:00 +24°C° 0 mm 2 mps 751 mmHg 42%
    06:00 +24°C° 0 mm 2 mps 751 mmHg 43%
    07:00 +26°C° 0 mm 2 mps 751 mmHg 39%
    08:00 +28°C° 0 mm 2 mps 751 mmHg 34%
    09:00 +30°C° 0 mm 2 mps 751 mmHg 30%
    10:00 +31°C° 0 mm 2 mps 751 mmHg 28%
    11:00 +33°C° 0 mm 3 mps 751 mmHg 26%
    12:00 +35°C° 0 mm 3 mps 751 mmHg 24%
    13:00 +35°C° 0 mm 4 mps 750 mmHg 26%
    14:00 +34°C° 0 mm 4 mps 750 mmHg 27%
    15:00 +34°C° 0 mm 4 mps 750 mmHg 28%
    16:00 +33°C° 0 mm 4 mps 750 mmHg 31%
    17:00 +31°C° 0 mm 3 mps 750 mmHg 34%
    18:00 +30°C° 0 mm 3 mps 750 mmHg 37%
    19:00 +30°C° 0 mm 2 mps 750 mmHg 39%
    20:00 +30°C° 0 mm 1 mps 751 mmHg 41%
    21:00 +29°C° 0 mm 1 mps 751 mmHg 43%
    22:00 +28°C° 0 mm 1 mps 751 mmHg 47%
    23:00 +28°C° 0 mm 1 mps 751 mmHg 50%

    Day after tomorrow, 22 September, Friday

    Time Temperature Precipitation Wind Pressure Humidity
    00:00 +27°C° 0 mm 2 mps 751 mmHg 53%
    01:00 +27°C° 0 mm 1 mps 751 mmHg 56%
    02:00 +26°C° 0 mm 1 mps 751 mmHg 60%
    03:00 +25°C° 0 mm 1 mps 750 mmHg 63%
    04:00 +25°C° 0 mm 1 mps 751 mmHg 65%
    05:00 +25°C° 0 mm 1 mps 751 mmHg 67%
    06:00 +25°C° 0 mm 1 mps 751 mmHg 68%
    07:00 +26°C° 0 mm 1 mps 751 mmHg 63%
    08:00 +27°C° 0 mm 1 mps 752 mmHg 58%
    09:00 +28°C° 0 mm 1 mps 752 mmHg 53%
    10:00 +29°C° 0 mm 2 mps 752 mmHg 48%
    11:00 +30°C° 0 mm 2 mps 752 mmHg 43%
    12:00 +33°C° 0 mm 3 mps 752 mmHg 38%
    13:00 +33°C° 0 mm 3 mps 751 mmHg 37%
    14:00 +34°C° 0 mm 4 mps 751 mmHg 37%
    15:00 +34°C° 0 mm 5 mps 751 mmHg 36%
    16:00 +33°C° 0 mm 5 mps 751 mmHg 42%
    17:00 +32°C° 0 mm 5 mps 751 mmHg 47%
    18:00 +30°C° 0 mm 5 mps 751 mmHg 53%
    19:00 +29°C° 0 mm 4 mps 751 mmHg 56%
    20:00 +28°C° 0 mm 4 mps 751 mmHg 60%
    21:00 +28°C° 0 mm 3 mps 752 mmHg 63%
    22:00 +27°C° 0 mm 3 mps 752 mmHg 64%
    23:00 +27°C° 0 mm 3 mps 752 mmHg 65%

    23 September, Saturday

    Time Temperature Precipitation Wind Pressure Humidity
    00:00 +27°C° 0 mm 3 mps 752 mmHg 66%
    01:00 +26°C° 0 mm 3 mps 751 mmHg 70%
    02:00 +26°C° 0 mm 3 mps 751 mmHg 73%
    03:00 +25°C° 0 mm 3 mps 751 mmHg 76%
    04:00 +25°C° 0 mm 2 mps 751 mmHg 76%
    05:00 +25°C° 0 mm 2 mps 751 mmHg 76%
    06:00 +25°C° 0 mm 2 mps 751 mmHg 76%
    07:00 +26°C° 0 mm 2 mps 752 mmHg 68%
    08:00 +28°C° 0 mm 2 mps 752 mmHg 60%
    09:00 +29°C° 0 mm 2 mps 753 mmHg 52%
    10:00 +30°C° 0 mm 3 mps 752 mmHg 49%
    11:00 +31°C° 0 mm 3 mps 752 mmHg 46%
    12:00 +33°C° 0 mm 4 mps 752 mmHg 44%
    13:00 +33°C° 0 mm 4 mps 752 mmHg 46%
    14:00 +33°C° 0 mm 4 mps 751 mmHg 48%
    15:00 +32°C° 0 mm 4 mps 751 mmHg 50%
    16:00 +32°C° 0 mm 4 mps 751 mmHg 54%
    17:00 +30°C° 0 mm 4 mps 752 mmHg 58%
    18:00 +29°C° 0 mm 3 mps 752 mmHg 61%
    19:00 +28°C° 0 mm 3 mps 752 mmHg 65%
    20:00 +28°C° 0 mm 2 mps 753 mmHg 68%
    21:00 +27°C° 0 mm 2 mps 753 mmHg 71%
    22:00 +27°C° 0 mm 2 mps 753 mmHg 74%
    23:00 +26°C° 0 mm 2 mps 753 mmHg 78%

    24 September, Sunday

    Time Temperature Precipitation Wind Pressure Humidity
    00:00 +26°C° 0 mm 2 mps 753 mmHg 81%
    01:00 +26°C° 0 mm 2 mps 753 mmHg 83%
    02:00 +25°C° 0 mm 2 mps 753 mmHg 85%
    03:00 +25°C° 0 mm 2 mps 753 mmHg 88%
    04:00 +25°C° 0 mm 2 mps 753 mmHg 89%
    05:00 +24°C° 0 mm 2 mps 753 mmHg 91%
    06:00 +24°C° 0 mm 2 mps 754 mmHg 93%
    07:00 +25°C° 0 mm 2 mps 754 mmHg 84%
    08:00 +26°C° 0 mm 3 mps 754 mmHg 76%
    09:00 +27°C° 0 mm 3 mps 754 mmHg 68%
    10:00 +29°C° 0 mm 3 mps 754 mmHg 60%
    11:00 +30°C° 0 mm 4 mps 754 mmHg 52%
    12:00 +33°C° 0 mm 5 mps 754 mmHg 43%
    13:00 +33°C° 0 mm 5 mps 754 mmHg 42%
    14:00 +33°C° 0 mm 6 mps 754 mmHg 42%
    15:00 +33°C° 0 mm 7 mps 753 mmHg 41%
    16:00 +32°C° 0 mm 7 mps 754 mmHg 46%
    17:00 +30°C° 0 mm 7 mps 754 mmHg 51%
    18:00 +29°C° 0 mm 7 mps 754 mmHg 56%
    19:00 +29°C° 0 mm 6 mps 754 mmHg 59%
    20:00 +28°C° 0 mm 6 mps 754 mmHg 62%
    21:00 +27°C° 0 mm 5 mps 755 mmHg 65%
    22:00 +27°C° 0 mm 4 mps 755 mmHg 67%
    23:00 +26°C° 0 mm 4 mps 754 mmHg 69%

    25 September, Monday

    Time Temperature Precipitation Wind Pressure Humidity
    00:00 +26°C° 0 mm 4 mps 754 mmHg 71%
    01:00 +26°C° 0 mm 3 mps 754 mmHg 72%
    02:00 +25°C° 0 mm 3 mps 754 mmHg 74%
    03:00 +25°C° 0 mm 3 mps 753 mmHg 75%
    04:00 +25°C° 0 mm 3 mps 753 mmHg 76%
    05:00 +24°C° 0 mm 3 mps 754 mmHg 77%
    06:00 +24°C° 0 mm 3 mps 754 mmHg 78%
    07:00 +26°C° 0 mm 4 mps 754 mmHg 70%
    08:00 +27°C° 0 mm 4 mps 754 mmHg 62%
    09:00 +28°C° 0 mm 4 mps 754 mmHg 54%
    10:00 +30°C° 0 mm 4 mps 754 mmHg 48%
    11:00 +32°C° 0 mm 4 mps 754 mmHg 42%
    12:00 +33°C° 0 mm 5 mps 753 mmHg 36%
    13:00 +34°C° 0 mm 5 mps 753 mmHg 35%
    14:00 +34°C° 0 mm 5 mps 753 mmHg 34%
    15:00 +34°C° 0 mm 6 mps 752 mmHg 33%
    16:00 +33°C° 0 mm 5 mps 752 mmHg 37%
    17:00 +32°C° 0 mm 5 mps 752 mmHg 40%
    18:00 +30°C° 0 mm 5 mps 752 mmHg 43%
    19:00 +29°C° 0 mm 4 mps 752 mmHg 46%
    20:00 +28°C° 0 mm 4 mps 753 mmHg 49%
    21:00 +28°C° 0 mm 3 mps 753 mmHg 52%
    22:00 +27°C° 0 mm 3 mps 753 mmHg 55%
    23:00 +27°C° 0 mm 3 mps 752 mmHg 57%
    Show more